Back to catalog

CZ-6A DEB

AliveSSO
NORAD 54431·DEBRIS·🇨🇳 China

Launched Nov 11, 2022 from Taiyuan Satellite Launch Center

Loading…

Next Passes (next 24 hours)

TLE

FreshSource: Space-Track

Epoch: Sep 14, 2026, 11:02 UTC

1 54431U 22151FF  26257.45993154  .00000638  00000-0  40848-3 0  9994
2 54431  98.9807 260.7574 0118774 105.1144 256.3197 14.03479728196155

Track CZ-6A DEB in real time with AllMySat

Download on the App Store